Terug naar catalogus

STARLINK-35388

ActiefCommunicatieVLEO
NORAD 66466·PAYLOAD·🇺🇸 United States

Gelanceerd Nov 15, 2025 vanaf Cape Canaveral Space Force Station

Loading…

Volgende Passages (komende 24 uur)

TLE

VersSource: CelesTrak SupGP

Epoch: Sep 15, 2026, 03:32 UTC

1 66466C 25262L   26258.14770833  .00026923  00000+0  97547-3 0  2585
2 66466  43.0008 305.9925 0001393 263.6268 113.5701 15.27554678    16

Volg STARLINK-35388 in realtime met AllMySat

Download on the App Store